Location: Unspecified
(0.0000°N, 0.0000°E)
Time: 15:53:47
(UTC+00:00)

STARLINK-11585 [DTC] - Visible Passes

Search period start: 15 June 2025 00:00
Search period end: 25 June 2025 00:00
Orbit: 355 x 357 km, 43.0° (Epoch: 15 June)

Date Brightness Start Highest point End Pass type
(mag) Time Alt. Az. Time Alt. Az. Time Alt. Az.
22 Jun ? 19:36:57 10° NNW 19:38:37 27° N 19:38:37 27° N visible
23 Jun ? 18:30:23 10° NNE 18:31:39 12° NE 18:32:56 10° ENE visible
23 Jun ? 20:05:12 10° W 20:05:38 13° W 20:05:38 13° W visible
24 Jun ? 18:56:34 10° NW 18:59:33 80° NE 19:01:03 26° SE visible
